[[{"header":{"parameterUnit":"m.s-1","parameterCategory":1,"la1":30.2991,"la2":30.254,"lo1":-89.0895,"lo2":-89.0444,"dy":0.0017,"dx":0.0017,"nx":28,"ny":28,"refTime":"2023-08-08T09:00:00:Z","depth":0,"parameterNumber":2,"parameterNumberName":"U-component_of_WINDS"},"data":[0,0,0,0,0,0,0,0,0,0,0,0,0,0,0,0,0,0,0,0,0,0,0,0,0,0,0,0,0,0,0,0,0,0,0,0,0,0,0,0,0,0,0,0,0,0,0,0,0,0,0,0,0,0,0,0,0,0,4.4485,4.4486,0,4.4513,4.4514,4.4514,4.4441,4.4439,4.4436,4.4434,4.4463,4.4466,4.4468,0,0,0,0,0,0,0,0,0,0,0,0,0,4.4366,4.4369,4.4485,4.4486,4.4486,4.4513,4.4514,4.4514,4.4441,4.4439,4.4436,4.4433,4.4462,4.4465,4.4469,0,0,0,0,0,0,0,0,0,0,0,0,0,4.4408,4.4369,4.4485,4.4453,4.445,4.4513,4.4514,4.4514,4.4442,4.4439,4.4435,4.4432,4.4461,4.4465,4.4469,4.4564,0,0,4.4482,4.4484,0,0,0,0,0,0,0,0,4.4406,4.4413,4.4457,4.4455,4.4453,4.447,4.4482,4.4531,4.4443,4.4445,4.4434,4.443,4.4468,4.4471,4.4484,4.4566,4.4567,4.4483,4.4485,4.4487,4.4488,0,0,0,0,0,0,0,4.4403,4.4411,4.4496,4.4458,4.4455,4.4436,4.4439,4.4491,4.4475,4.4445,4.444,4.4444,4.4466,4.448,4.4484,4.4567,4.4483,4.4486,4.4489,4.4491,4.4724,4.4727,0,0,0,0,0,0,4.4405,4.4409,4.4495,4.4497,4.442,4.4441,4.4444,4.4468,4.4475,4.4472,4.4447,4.444,4.4475,4.4479,4.4485,4.4593,4.4487,4.4491,4.4494,4.472,4.4724,4.4728,0,0,0,0,0,0,4.4402,4.4413,4.4494,4.4452,4.4461,4.4447,4.4475,4.447,4.4484,4.4476,4.4473,4.4464,4.4472,4.4479,4.4544,4.4593,4.4493,4.4497,4.4716,4.4721,4.4726,4.4813,0,0,0,0,0,0,4.4399,4.4413,4.445,4.4453,4.4463,4.4554,4.4478,4.4473,4.4492,4.4484,4.4492,4.449,4.447,4.4538,4.4548,4.4597,4.4501,4.4711,4.4718,4.4725,4.4805,4.482,4.4833,0,0,0,0,0,4.4395,4.4474,4.4452,4.4463,4.4509,4.4557,4.4563,4.4538,4.4497,4.4532,4.4527,4.449,4.4587,4.4545,4.4557,4.4607,4.4708,4.4716,4.4724,4.4799,4.4817,4.4833,0,0,0,0,0,0,4.4477,4.4474,4.4449,4.4532,4.4545,4.4545,4.4589,4.4559,4.4585,4.4576,4.4545,4.4547,4.4617,4.4619,4.4573,4.4698,4.464,4.4651,4.4693,4.4711,4.4724,4.4721,4.4504,0,0,0,0,0,4.4505,4.4544,4.4539,4.4612,4.462,4.4604,4.4624,4.4604,4.4616,4.4622,4.4621,4.4634,4.4667,4.469,4.472,4.4806,4.4805,4.4847,4.4861,4.4872,4.488,4.4922,4.4939,4.4755,4.4755,4.4755,0,0,4.4562,4.4565,4.4592,4.4628,4.4636,4.4676,4.4609,4.4656,4.4684,4.4629,4.4688,4.4689,4.4701,4.4776,4.4809,4.478,4.4931,4.4882,4.4892,4.4894,4.4932,4.495,4.4965,4.476,4.4759,4.4758,0,0,4.4686,4.4694,4.4753,4.4762,4.4774,4.4763,4.4777,4.4781,4.4778,4.4838,4.4796,4.483,4.4889,4.4898,4.4911,4.5036,4.5001,4.5047,4.5118,4.5159,4.5174,4.5186,4.5227,4.5242,4.5056,4.5056,4.5056,0,4.4755,4.4814,4.4787,4.4835,4.4851,4.4802,4.486,4.487,4.4893,4.4904,4.4872,4.4942,4.4947,4.5021,4.5051,4.5065,4.5078,4.5044,4.5174,4.5186,4.5198,4.5236,4.5252,4.5061,4.5061,4.506,4.506,0,4.4896,4.4938,4.4984,4.5005,4.5026,4.508,4.5059,4.5084,4.5062,4.5053,4.5113,4.5118,4.5147,4.5164,4.5144,4.5234,4.5215,4.5179,4.512,4.5221,4.5256,4.5271,4.5069,4.5067,4.5065,4.5064,0,0,4.5072,4.5076,4.5093,4.5099,4.5109,4.514,4.519,4.5217,4.5237,4.5254,4.5293,4.5343,4.5309,4.5323,4.5303,4.534,4.5433,4.5298,4.5298,4.532,4.5529,4.5553,4.5571,4.5411,4.5414,4.5416,4.5526,0,4.5191,4.5275,4.5251,4.5336,4.5371,4.5325,4.5368,4.5377,4.537,4.5399,4.5392,4.5426,4.538,4.5387,4.5422,4.5414,4.5474,4.5407,4.5445,4.5446,4.5439,4.559,4.5616,4.5719,4.554,4.5543,4.5544,0,4.534,4.5361,4.5448,4.5447,4.5462,4.5501,4.5521,4.5551,4.556,4.5552,4.5567,4.5539,4.5586,4.5529,4.5592,4.5547,4.5561,4.556,4.5563,4.5563,4.5499,4.5589,4.5752,4.5766,4.5567,4.5565,4.5563,0,4.5454,4.5504,4.5561,4.5569,4.5572,4.5599,4.5602,4.5607,4.5624,4.5643,4.5653,4.5678,4.5691,4.571,4.5688,4.565,4.5753,4.5695,4.5745,4.5746,4.5767,4.5765,4.593,4.5783,4.5783,4.5782,4.5782,0,4.5587,4.5641,4.5611,4.5646,4.5705,4.5677,4.5735,4.5732,4.5737,4.577,4.5733,4.5764,4.5736,4.5764,4.5748,4.58,4.5808,4.5801,4.5795,4.5802,4.5802,4.5808,4.5799,4.5787,4.5786,4.5785,4.5784,0,4.5722,4.5705,4.5764,4.5761,4.5761,4.5804,4.58,4.5832,4.5822,4.5863,4.5871,4.5855,4.5886,4.5868,4.5901,4.5889,4.5956,4.5943,4.5952,4.5947,4.5997,4.5991,4.6168,4.6189,4.6032,4.6034,4.6035,0,4.5806,4.5846,4.5846,4.5864,4.5869,4.59,4.5916,4.589,4.5908,4.592,4.5949,4.5977,4.5997,4.6049,4.604,4.6064,4.6048,4.6109,4.6051,4.6055,4.6044,4.604,4.6042,4.6119,4.6121,4.6123,4.6124,0,4.5955,4.5944,4.5968,4.5989,4.6009,4.6025,4.6037,4.6054,4.6028,4.605,4.608,4.6096,4.6128,4.6155,4.6175,4.6176,4.6145,4.6142,4.6154,4.616,4.6162,4.6157,4.5979,4.6138,4.6136,4.6135,4.6134,4.6134,4.6064,4.6096,4.61,4.6127,4.6133,4.6145,4.6173,4.6166,4.6191,4.6213,4.6197,4.6232,4.6238,4.6261,4.6266,4.6293,4.6268,4.6287,4.629,4.6294,4.6299,4.6161,4.6297,4.6296,4.6296,4.6296,4.6295,0,4.6207,4.6207,4.6233,4.625,4.6271,4.624,4.6251,4.6271,4.6302,4.631,4.633,4.6363,4.6389,4.6382,4.6404,4.6426,4.6412,4.6433,4.6429,4.6429,4.6322,4.6307,4.6443,4.6443,4.6443,4.6443,4.6443,4.6443,4.6284,4.6334,4.6323,4.6376,4.6375,4.6408,4.6417,4.6427,4.6432,4.6471,4.6491,4.6486,4.6487,4.6509,4.653,4.6527,4.6535,4.656,4.6552,4.6452,4.6437,4.6423,4.6408,4.6563,4.6563,4.6655,4.6656,4.6657]},{"header":{"parameterUnit":"m.s-1","parameterCategory":1,"la1":30.2991,"la2":30.254,"lo1":-89.0895,"lo2":-89.0444,"dy":0.0017,"dx":0.0017,"nx":28,"ny":28,"refTime":"2023-08-08T09:00:00:Z","depth":0,"parameterNumber":3,"parameterNumberName":"V-component_of_WINDS"},"data":[0,0,0,0,0,0,0,0,0,0,0,0,0,0,0,0,0,0,0,0,0,0,0,0,0,0,0,0,0,0,0,0,0,0,0,0,0,0,0,0,0,0,0,0,0,0,0,0,0,0,0,0,0,0,0,0,0,0,5.101,5.1011,0,5.1108,5.1109,5.111,5.1077,5.1075,5.1073,5.1071,5.1165,5.1169,5.1173,0,0,0,0,0,0,0,0,0,0,0,0,0,5.0788,5.0792,5.101,5.1011,5.1012,5.1107,5.1109,5.111,5.1077,5.1075,5.1072,5.107,5.1163,5.1168,5.1174,0,0,0,0,0,0,0,0,0,0,0,0,0,5.0885,5.0794,5.101,5.1008,5.1008,5.1107,5.1109,5.111,5.1078,5.1075,5.1071,5.1069,5.1161,5.1168,5.1175,5.1279,0,0,5.1195,5.1198,0,0,0,0,0,0,0,0,5.0879,5.0893,5.1007,5.1008,5.1009,5.1077,5.1065,5.1167,5.1079,5.1051,5.1071,5.1067,5.1138,5.1146,5.1171,5.1284,5.1288,5.1196,5.12,5.1203,5.1204,0,0,0,0,0,0,0,5.0873,5.0889,5.1048,5.1008,5.101,5.0999,5.101,5.1084,5.1111,5.1053,5.1051,5.1064,5.1138,5.1165,5.1173,5.1289,5.1195,5.1201,5.1205,5.1208,5.1489,5.1492,0,0,0,0,0,0,5.0866,5.0883,5.1045,5.1051,5.0935,5.1006,5.1018,5.1058,5.111,5.1115,5.1066,5.1062,5.1155,5.1165,5.1176,5.13,5.1202,5.1209,5.1213,5.1486,5.149,5.1494,0,0,0,0,0,0,5.0862,5.0881,5.1041,5.0967,5.0986,5.1013,5.1059,5.1062,5.1089,5.112,5.1124,5.109,5.1153,5.1167,5.1254,5.1303,5.1212,5.1218,5.1482,5.1487,5.1492,5.155,0,0,0,0,0,0,5.0855,5.088,5.0922,5.0968,5.0991,5.112,5.1062,5.1066,5.1101,5.1096,5.1143,5.1147,5.1151,5.1244,5.126,5.1311,5.1223,5.1477,5.1484,5.149,5.1544,5.1557,5.1568,0,0,0,0,0,5.0848,5.0933,5.0924,5.0944,5.1044,5.1122,5.1135,5.114,5.1106,5.1146,5.1166,5.1146,5.1295,5.1253,5.1271,5.1324,5.1474,5.1482,5.149,5.1539,5.1554,5.1568,0,0,0,0,0,0,5.089,5.094,5.0929,5.1033,5.1074,5.1117,5.1169,5.1157,5.1206,5.12,5.1201,5.1212,5.1301,5.1321,5.1273,5.1427,5.1379,5.1391,5.141,5.1425,5.1437,5.1429,5.1229,0,0,0,0,0,5.0912,5.0974,5.1013,5.1101,5.1122,5.1142,5.1176,5.1177,5.1218,5.1235,5.126,5.13,5.1355,5.1391,5.1445,5.1547,5.1555,5.1592,5.1604,5.1614,5.1623,5.1676,5.1693,5.1519,5.1519,5.1519,0,0,5.0957,5.0992,5.1031,5.111,5.1142,5.1203,5.1157,5.1224,5.1269,5.1244,5.1328,5.1348,5.1391,5.1486,5.1529,5.1506,5.1673,5.1624,5.1631,5.1636,5.1686,5.1702,5.1717,5.1524,5.1523,5.1522,0,0,5.107,5.1104,5.118,5.1213,5.1262,5.1274,5.1292,5.1337,5.135,5.1434,5.1416,5.1468,5.1565,5.1596,5.1624,5.1748,5.173,5.1765,5.1826,5.1878,5.1892,5.1904,5.1945,5.1961,5.1775,5.1775,5.1775,0,5.112,5.1214,5.122,5.1289,5.1323,5.1305,5.138,5.1411,5.1474,5.1497,5.147,5.159,5.1618,5.1718,5.1748,5.1773,5.1791,5.1759,5.189,5.1902,5.1913,5.1953,5.1969,5.1779,5.1778,5.1778,5.1777,0,5.1271,5.1336,5.1391,5.1454,5.1494,5.1566,5.158,5.162,5.1616,5.1631,5.1715,5.1748,5.1807,5.1831,5.1828,5.193,5.1914,5.1889,5.1841,5.1933,5.1971,5.1986,5.1784,5.1783,5.1782,5.1781,0,0,5.1414,5.1478,5.1498,5.1525,5.1578,5.1627,5.1696,5.1755,5.1788,5.1832,5.1888,5.197,5.1946,5.1979,5.1978,5.2024,5.2117,5.1993,5.1994,5.2013,5.2229,5.2246,5.2264,5.2106,5.2109,5.2111,5.2224,0,5.1529,5.1654,5.166,5.1772,5.1831,5.1814,5.1874,5.1911,5.1926,5.1976,5.1992,5.2049,5.2015,5.2034,5.2079,5.2096,5.216,5.2088,5.2156,5.2158,5.2144,5.2284,5.2303,5.2408,5.2239,5.2242,5.2244,0,5.1681,5.1731,5.1849,5.1891,5.1916,5.197,5.2023,5.2073,5.2113,5.212,5.2156,5.2149,5.2217,5.2168,5.226,5.2211,5.2239,5.2252,5.2256,5.2261,5.2205,5.229,5.2442,5.2457,5.2267,5.2265,5.2263,0,5.1771,5.1867,5.195,5.1974,5.2026,5.2064,5.2086,5.2124,5.2158,5.2204,5.2226,5.2278,5.2307,5.2346,5.2352,5.2316,5.2444,5.2396,5.245,5.245,5.2476,5.2474,5.2632,5.2498,5.2497,5.2497,5.2497,0,5.1898,5.1971,5.199,5.2041,5.212,5.2126,5.2204,5.2224,5.2257,5.2309,5.2297,5.2346,5.2352,5.2402,5.2407,5.2481,5.2494,5.25,5.25,5.25,5.2499,5.2517,5.2509,5.2501,5.25,5.2499,5.2499,0,5.2011,5.2028,5.2116,5.2158,5.217,5.2227,5.2261,5.2308,5.2322,5.2388,5.2403,5.2424,5.2482,5.2492,5.256,5.2563,5.2651,5.2644,5.2637,5.2636,5.2689,5.2683,5.2862,5.2885,5.2737,5.2739,5.274,0,5.2091,5.2146,5.2194,5.2229,5.2254,5.2311,5.2346,5.2353,5.2389,5.2439,5.2479,5.2535,5.2581,5.2673,5.2692,5.2743,5.2737,5.2796,5.2744,5.2742,5.2735,5.2731,5.2735,5.2805,5.2807,5.2808,5.2809,0,5.2229,5.2234,5.2287,5.2341,5.2384,5.2427,5.2467,5.2496,5.2508,5.2549,5.2608,5.2644,5.2713,5.2768,5.2819,5.2839,5.2825,5.2826,5.2841,5.284,5.2833,5.2835,5.2662,5.2821,5.282,5.2819,5.2819,5.2818,5.2326,5.2374,5.2415,5.2473,5.2504,5.2542,5.2588,5.2608,5.2658,5.2716,5.2716,5.2781,5.2817,5.2884,5.2908,5.2956,5.2937,5.2959,5.2964,5.2969,5.2973,5.2827,5.2966,5.2966,5.2965,5.2965,5.2965,0,5.2462,5.2488,5.2541,5.2599,5.2643,5.2629,5.2673,5.271,5.2768,5.2804,5.2849,5.2916,5.2969,5.2993,5.3045,5.3079,5.3074,5.3092,5.3089,5.3093,5.2989,5.297,5.3095,5.3095,5.3095,5.3095,5.3095,5.3095,5.2538,5.2617,5.2627,5.272,5.2745,5.2809,5.2835,5.2869,5.2898,5.2974,5.3019,5.3034,5.3065,5.3118,5.3166,5.3171,5.3189,5.321,5.3212,5.3114,5.3101,5.3088,5.307,5.3215,5.3215,5.3313,5.3314,5.3314]}]]